ARIANE 44L+ DEB (SPELDA)

Satellite information

Favourite Embed

Satellite Type and Status

DEBRISIN ORBIT

Key statistics

Satellite ARIANE 44L+ DEB (SPELDA) at a glance.

Uptime

12200

Days in orbit

Revolutions

≈ 4.1

Per day

Orbit

MEO

Medium Earth Orbit

Inclination

4.3

Latest

Satellite identification and parameters

Extended collection of information and parameters for ARIANE 44L+ DEB (SPELDA).

Object identification

Identified? True

Debris? True

Object name: ARIANE 44L+ DEB (SPELDA)

International designator: 1992-021D

Object number (NORAD): 21942

Object ID (CCSDS): 21942

Country: FRANCE (FR)

Current information (Y/N): Y

RCS size: LARGE

Orbital parameters

Period: 354.27 minutes

Inclination: 4.2807 deg

SMA: 16585.036 km

Apoapsis: 20070.937 km

Periapsis: 342.865 km

RAAN: 251.8802 deg

Eccentricy: 0.59475517

Argument of periapsis: 332.3804 deg

Mean anomaly: 5.7292 deg

Mean motion: 4.06469668 rev/day

Mean motion (dot): 0.00010063 rev/day2

B* drag term: 0.0050327822 1/REarth

Two-line elements (TLE)

Creation date: Sept. 8, 2025, 3:16 a.m.

Reference frame: TEME

Reference center: EARTH

Epoch: Sept. 7, 2025, 3:40 p.m. UTC

TLE line 0: 0 ARIANE 44L+ DEB (SPELDA)

TLE line 1: 1 21942U 92021D 25250.65306509 .00010063 00000-0 50328-2 0 9990

TLE line 2: 2 21942 4.2807 251.8802 5947552 332.3804 5.7292 4.06469668386682

Live tracking on map

Real-time ground track for satellite ARIANE 44L+ DEB (SPELDA).

In-orbit conjunctions

There are no conjunctions computed for ARIANE 44L+ DEB (SPELDA), at the moment. Check back to stay up to date, as we update our databases every day.

Go to all conjunctions

Associated space launch

Télécom 2B and Inmarsat-2 F4 are French and International communications satellites operating in GEO.

ARIANE 44L+ DEB (SPELDA) was lifted into orbit during the mission ‘Ariane 44L | Télécom 2B & Inmarsat-2 F4’, on board a Ariane 44L space rocket.

The launch took place on April 15, 1992, 11:25 p.m. from Ariane Launch Area 2.

For more information about the launch, click the button.

Launch to space Ariane 44L | Télécom 2B & Inmarsat-2 F4
Ariane 44L | Télécom 2B & Inmarsat-2 F4

Agency: N/A

Status: Launch Successful

Launch date: April 15, 1992, 11:25 p.m. UTC

Rocket: Ariane 44L

Launch pad: Ariane Launch Area 2

Location: Guiana Space Centre, French Guiana

...

Latest news about this satellite

There are no fresh news available about this satellite. Check back as we update our databases every day.


Newsletter sign-up

Weekly statistics, charts and insights to help you stay on top of the space industry.